Flag for Tonga Weather past 2 weeks in Nukualofa, Tonga

Now
66 °F

Passing clouds.


Feels Like: 66 °F
Forecast: 67 / 72 °F
Wind: No wind

Location: Fua'Amotu

Current Time: Jul 25, 2014 at 8:12:15 PM

Latest Report: Jul 25, 2014 at 7:00 PM


Visibility: N/A

Pressure: 30.04 "Hg

Humidity: 83%

Dew point: 61 °F

Location of NukualofaLocation

Historic Weather in Nukualofa — Graph

°F

Nukualofa temperature yesterday

Maximum temperature yesterday: 72 °F (at 1:00 PM)
Minimum temperature yesterday: 63 °F (at 12:00 AM)
Average temperature yesterday: 67 °F

Past Weeks' High & Low Weather Summary

 TemperatureHumidityPressure
High79 °F (Jul 15, 2:00 PM)100% (Jul 14, 2:00 AM)30.09 "Hg (Jul 14, 2:00 AM)
Low57 °F (Jul 18, 4:00 AM)61% (Jul 16, 11:00 AM)29.77 "Hg (Jul 14, 6:00 AM)
Average70 °F85%29.91 "Hg
* Reported Jul 10 7:00 PM — Jul 25 7:00 PM, Nukualofa, Weather by CustomWeather, © 2014

Note: Actual official high and low records may vary slightly from our data, if they occured in-between our weather recording intervals... More about our weather records

Advertising

Nukualofa weather history for previous 24 hours

 ConditionsComfort  
Time TempWeatherWind HumidityBarometerVisibility
7:00 PM
Jul 25
66 °FPassing clouds.No wind83%30.04 "HgN/A
6:00 PM66 °FPassing clouds.7 mph83%30.04 "HgN/A
5:00 PM70 °FScattered clouds.5 mph83%30.01 "HgN/A
4:00 PM72 °FPassing clouds.8 mph65%30.01 "HgN/A
3:00 PM72 °FPassing clouds.7 mph65%30.01 "HgN/A
2:00 PM72 °FPassing clouds.8 mph65%30.04 "HgN/A
1:00 PM72 °FPassing clouds.9 mph61%30.04 "HgN/A
12:00 PM72 °FPassing clouds.10 mph61%30.07 "HgN/A
11:00 AM70 °FScattered clouds.8 mph69%30.09 "HgN/A
10:00 AM70 °FPassing clouds.6 mph69%30.09 "HgN/A
9:00 AM66 °FScattered clouds.8 mph73%30.09 "HgN/A
8:00 AM66 °FScattered clouds.8 mph73%30.07 "HgN/A
7:00 AM63 °FScattered clouds.3 mph88%30.04 "HgN/A
6:00 AM64 °FPassing clouds.5 mph83%30.04 "HgN/A
5:00 AM64 °FPassing clouds.9 mph78%30.01 "HgN/A
4:00 AM63 °FPassing clouds.6 mph83%30.01 "HgN/A
3:00 AM64 °FPassing clouds.7 mph78%30.01 "HgN/A
2:00 AM61 °FPassing clouds.2 mph94%30.04 "HgN/A
1:00 AM63 °FPassing clouds.5 mph88%30.04 "HgN/A
12:00 AM64 °FPassing clouds.5 mph83%30.04 "HgN/A
11:00 PM
Jul 24
66 °FPassing clouds.6 mph78%30.04 "HgN/A
10:00 PM64 °FPassing clouds.5 mph83%30.04 "HgN/A
9:00 PM66 °FPassing clouds.6 mph83%30.04 "HgN/A
8:00 PM68 °FPassing clouds.7 mph73%30.01 "HgN/A
Weather by CustomWeather, © 2014

See weather overviewHow to use our weather pages